< < Back
Terminal Aerodrome Forecast


Current Version              Previous Versions:   1  2  3  4  5  6  7  8  9  

Terminal Aerodrome Forecast

137
FTUS44 KMOB 242200 AAA
TAFPNS
TAF AMD
KPNS 242209Z 2422/2518 19012KT P6SM VCSH SCT045 BKN250
     FM250100 22006KT P6SM SCT030 SCT250
     FM250900 23002KT P6SM OVC050 PROB30 2510/2515 P6SM SHRA OVC025=



Latest METAR

388
SAUS70 KWBC 250100 RRN
MTRPNS
METAR KPNS 250053Z 22005KT 10SM CLR 27/21 A2997 RMK AO2 SLP148
T02670211


USA.gov is the U.S. government's official web portal to all federal, state and local government web resources and services.